sat.trackr.live / text

‹ back to catalog

STARLINK-4767

NORAD 53850 · 2022-114AJ

PAYLOAD ACTIVE UNKNOWN

§ Identity

Operator
Country
US
Launch date
2022-09-19
Launch site
AFETR
Launch vehicle
Mass (kg)
RCS (m²)

Purposes: comms

External: N2YO · Heavens-Above · Gunter

§ Orbital elements

Epoch: 2026-09-20T22:00:03.000096Z

Period
95.21 min
Inclination
53.1600°
Eccentricity
0.0001018
Mean motion
15.12513907 rev/d
Perigee alt
527.8 km
Apogee alt
529.2 km
Semi-major
6,906.7 km
B*
1.6348e-3
RAAN
136.6385°
Arg perigee
113.2255°
Mean anomaly
118.8006°
Rev number
580

§ Raw data

STARLINK-47671 53850U 22114AJ  26263.91670139  .00028618  00000+0  16348-2 0  99942 53850  53.1600 136.6385 0001018 113.2255 118.8006 15.12513907  5800

JSON: /api/v1/satellites/53850 · /tle

For live sub-satellite position, see the globe view (requires WebGL).

§ Visibility from observer

Set your observer location to see the next 7 days of passes ≥ 10°. The values pass through the URL so the page stays shareable.

No JS? Fill the form by hand. The geolocation button needs JavaScript.